EW0427 Weather Reports


Display with metric or nautical units.
time (UTC)temp
F
wind
direction
speed
MPH
gust
MPH
rain 1hr
in
rain 24hr
in
rain mn
in
humidity
%
barometer
mb
20260510014538 53 236 0.0 4.0 0.00 0.23 0.22 93 1008.2
20260510013037 53 236 0.0 7.0 0.00 0.23 0.22 94 1008.0
20260510011543 53 237 3.0 7.0 0.00 0.23 0.22 94 1007.7
20260510010038 53 237 3.0 9.0 0.00 0.23 0.22 93 1007.6
20260510004539 54 238 3.0 9.0 0.00 0.30 0.22 93 1007.5
20260510003039 54 242 6.0 13.0 0.01 0.30 0.22 94 1007.5
20260510001537 54 237 5.0 12.0 0.07 0.30 0.22 93 1007.4
20260510000045 54 242 6.0 10.0 0.13 0.30 0.22 93 1007.4
20260509234536 54 307 2.0 9.0 0.19 0.34 0.22 93 1007.2
20260509233038 53 309 3.0 15.0 0.17 0.32 0.20 92 1007.3
20260509231538 53 288 7.0 19.0 0.12 0.27 0.15 91 1008.1
20260509230037 54 300 14.0 30.0 0.05 0.20 0.08 87 1007.6
20260509224548 65 284 17.0 42.0 0.00 0.15 0.03 61 1007.2
20260509223038 66 223 9.0 18.0 0.00 0.15 0.03 59 1005.3
20260509221547 66 159 7.0 17.0 0.00 0.15 0.03 59 1005.1
20260509220040 67 234 7.0 16.0 0.00 0.15 0.03 59 1005.1
20260509214539 68 188 6.0 24.0 0.00 0.15 0.03 59 1004.7
20260509213037 68 248 8.0 27.0 0.00 0.15 0.03 57 1004.7
20260509211537 68 202 8.0 23.0 0.00 0.15 0.03 56 1005.0
20260509210037 69 176 8.0 24.0 0.00 0.15 0.03 57 1005.1
20260509204550 68 232 8.0 23.0 0.00 0.15 0.03 59 1005.3
20260509203037 66 174 10.0 24.0 0.00 0.15 0.03 58 1005.6
20260509201547 68 210 9.0 23.0 0.00 0.15 0.03 57 1005.7
20260509200046 68 242 7.0 19.0 0.00 0.15 0.03 60 1005.7
20260509194537 68 192 6.0 21.0 0.00 0.15 0.03 61 1006.2
20260509193037 67 254 8.0 20.0 0.00 0.15 0.03 59 1006.4
20260509191537 67 187 9.0 20.0 0.00 0.15 0.03 59 1006.7
20260509190038 66 163 11.0 23.0 0.00 0.15 0.03 59 1006.7
20260509184536 67 170 10.0 20.0 0.00 0.15 0.03 57 1006.6
20260509183043 67 188 8.0 17.0 0.00 0.15 0.03 60 1006.6
20260509181546 67 204 7.0 18.0 0.00 0.15 0.03 62 1006.7
20260509180050 66 164 7.0 16.0 0.00 0.15 0.03 64 1006.8
20260509174542 65 204 9.0 22.0 0.00 0.15 0.03 66 1006.9
20260509173037 66 239 8.0 18.0 0.00 0.15 0.03 65 1006.9
20260509171542 65 269 6.0 16.0 0.00 0.15 0.03 67 1007.0
20260509170037 63 221 6.0 16.0 0.00 0.15 0.03 69 1006.9
20260509164550 62 239 9.0 17.0 0.00 0.15 0.03 69 1007.0
20260509163042 60 247 6.0 16.0 0.00 0.15 0.03 73 1007.3
20260509161538 61 274 7.0 19.0 0.00 0.15 0.03 70 1007.6
20260509160038 61 249 9.0 17.0 0.00 0.15 0.03 74 1007.8
20260509154537 61 164 5.0 14.0 0.00 0.15 0.03 78 1007.7
20260509153036 59 193 5.0 15.0 0.00 0.15 0.03 82 1007.7
20260509151538 58 196 6.0 17.0 0.00 0.15 0.03 86 1007.6
20260509150048 56 251 7.0 13.0 0.00 0.15 0.03 90 1007.8
20260509144538 56 234 6.0 14.0 0.00 0.15 0.03 93 1007.9
20260509143038 55 234 5.0 12.0 0.00 0.15 0.03 94 1007.9
20260509141537 54 221 4.0 9.0 0.00 0.15 0.03 95 1007.7
20260509140037 54 261 3.0 10.0 0.00 0.15 0.03 95 1007.8
20260509134548 53 233 2.0 7.0 0.00 0.15 0.03 95 1007.7
20260509133041 53 241 4.0 11.0 0.00 0.15 0.03 95 1007.8
20260509131548 53 198 3.0 7.0 0.00 0.15 0.03 95 1007.9
20260509130040 52 202 2.0 8.0 0.00 0.15 0.03 95 1007.9
20260509124537 52 209 3.0 6.0 0.00 0.15 0.03 95 1008.0
20260509123037 52 211 2.0 6.0 0.00 0.15 0.03 95 1008.0
20260509121543 51 218 2.0 6.0 0.00 0.15 0.03 95 1008.2
20260509120038 51 0 1.0 5.0 0.00 0.15 0.03 95 1008.3
20260509114543 51 0 0.0 5.0 0.00 0.15 0.03 95 1008.3
20260509113039 51 0 0.0 5.0 0.00 0.15 0.03 95 1008.2
20260509111537 51 190 1.0 5.0 0.00 0.15 0.03 95 1008.0
20260509110043 51 0 2.0 5.0 0.00 0.15 0.03 95 1007.9
20260509104542 51 0 1.0 5.0 0.00 0.15 0.03 95 1007.9
20260509103040 50 191 2.0 7.0 0.00 0.15 0.03 95 1008.2
20260509101548 50 188 0.0 7.0 0.00 0.15 0.03 95 1008.0
20260509100037 50 190 1.0 5.0 0.00 0.15 0.03 95 1008.1
20260509094537 50 190 1.0 6.0 0.00 0.15 0.03 95 1008.1
20260509093035 50 0 0.0 5.0 0.00 0.15 0.03 95 1008.3
20260509091540 50 0 1.0 5.0 0.00 0.15 0.03 95 1008.5
20260509090037 50 0 0.0 5.0 0.00 0.15 0.03 95 1008.4
20260509084537 50 190 1.0 6.0 0.00 0.15 0.03 95 1008.6
20260509083044 50 194 2.0 5.0 0.00 0.15 0.03 95 1008.7
20260509081537 50 0 3.0 7.0 0.00 0.15 0.03 95 1008.7
20260509080042 50 194 1.0 8.0 0.00 0.15 0.03 95 1008.7
20260509074552 50 202 2.0 6.0 0.00 0.15 0.03 95 1008.7
20260509073037 50 0 1.0 6.0 0.00 0.15 0.03 95 1008.8
20260509071537 50 203 2.0 6.0 0.00 0.15 0.03 95 1008.9
20260509070036 50 203 3.0 5.0 0.01 0.15 0.03 95 1009.0
20260509064556 50 202 1.0 8.0 0.01 0.15 0.03 95 1009.1
20260509063045 50 203 2.0 7.0 0.01 0.15 0.03 95 1009.2
20260509061542 50 204 2.0 7.0 0.01 0.15 0.03 95 1009.3
20260509060038 50 205 1.0 9.0 0.00 0.14 0.02 95 1009.3
20260509054537 50 210 3.0 8.0 0.01 0.14 0.02 95 1009.5
20260509053036 50 200 3.0 8.0 0.02 0.14 0.02 95 1009.7
20260509051540 50 197 1.0 7.0 0.02 0.14 0.02 95 1009.7
20260509050039 50 197 1.0 6.0 0.02 0.14 0.02 95 1009.8
20260509044537 50 188 1.0 5.0 0.01 0.13 0.01 94 1010.0
20260509043050 50 188 2.0 7.0 0.00 0.12 0.00 94 1010.1
20260509041538 49 175 4.0 13.0 0.00 0.12 0.00 94 1010.3
20260509040043 49 167 3.0 11.0 0.00 0.12 0.00 94 1010.5
20260509034548 49 180 2.0 7.0 0.00 0.12 0.12 94 1010.8
20260509033052 49 181 1.0 9.0 0.00 0.12 0.12 94 1010.8
20260509031539 49 184 3.0 7.0 0.01 0.12 0.12 94 1010.8
20260509030041 49 185 2.0 7.0 0.01 0.12 0.12 94 1010.9
20260509024539 49 196 2.0 6.0 0.01 0.12 0.12 94 1011.1
20260509023037 49 221 1.0 5.0 0.01 0.12 0.12 94 1011.2
20260509021537 49 222 2.0 6.0 0.00 0.11 0.11 94 1011.1
20260509020037 50 0 2.0 8.0 0.00 0.11 0.11 94 1011.2